Weather History for KOWD - October, 2013

Change the Weather History Date:

Friday, October 25, 2013

  Actual Average Record
Temperature  
Mean Temperature 38 °F -  
Max Temperature 52 °F 56 °F 77 °F (2001)
Min Temperature 25 °F 33 °F 19 °F (2003)
Degree Days  
Heating Degree Days 27    
Moisture  
Dew Point 25 °F    
Average Humidity 67    
Maximum Humidity 92    
Minimum Humidity 35    
Precipitation  
Precipitation 0.00 in - - ()
Sea Level Pressure  
Sea Level Pressure 30.03 in    
Wind  
Wind Speed 3 mph (WNW)    
Max Wind Speed 13 mph    
Max Gust Speed 21 mph    
Visibility 10 miles    
Events      
Averages and records for this station are not official NWS values.
T = Trace of Precipitation, MM = Missing Value Source: NWS Daily Summary

Daily Weather History Graph

Daily Weather History Graph

Search for Another Location

Airport or City:

Trip Planner

Search our weather history database for the weather conditions in past years. The results will help you decide how hot, cold, wet, or windy it might be!

Date:

Astronomy

Oct. 25, 2013 Rise Set
Actual Time 7:09 AM EDT 5:47 PM EDT
Civil Twilight 6:40 AM EDT 6:16 PM EDT
Nautical Twilight 6:07 AM EDT 6:48 PM EDT
Astronomical Twilight 5:35 AM EDT 7:21 PM EDT
Moon 11:02 PM EDT (10/25) 12:49 PM EDT (10/25)
Length of Visible Light 11h 35m
Length of Day
10h 38m
Waning Gibbous, 62% of the Moon is Illuminated
Oct 25
Waning Gibbous
Oct 26
Last Quarter
Nov 3
New
Nov 10
First Quarter
Nov 17
Full

Hourly Weather History & Observations

Time (EDT) Temp. Windchill Dew Point Humidity Pressure Visibility Wind Dir Wind Speed Gust Speed Precip Events Conditions
12:53 AM 33.1 °F - 25.0 °F 72% 29.91 in 10.0 mi Calm Calm - N/A   Clear
1:53 AM 28.9 °F - 24.1 °F 82% 29.93 in 10.0 mi Calm Calm - N/A   Clear
2:53 AM 28.0 °F - 24.1 °F 85% 29.93 in 10.0 mi Calm Calm - N/A   Clear
3:53 AM 26.1 °F - 24.1 °F 92% 29.94 in 10.0 mi Calm Calm - N/A   Clear
4:53 AM 26.1 °F - 21.9 °F 84% 29.96 in 10.0 mi Calm Calm - N/A   Clear
5:53 AM 25.0 °F - 21.0 °F 85% 29.98 in 10.0 mi Calm Calm - N/A   Clear
6:53 AM 26.1 °F - 21.0 °F 81% 29.99 in 10.0 mi Calm Calm - N/A   Clear
7:53 AM 30.0 °F - 27.0 °F 88% 30.02 in 10.0 mi Calm Calm - N/A   Clear
8:53 AM 41.0 °F 35.2 °F 32.0 °F 70% 30.03 in 10.0 mi West 9.2 mph - N/A   Clear
9:53 AM 46.9 °F - 32.0 °F 56% 30.03 in 10.0 mi West 11.5 mph - N/A   Clear
10:53 AM 48.9 °F - 30.9 °F 50% 30.03 in 10.0 mi West 10.4 mph - N/A   Mostly Cloudy
11:53 AM 46.9 °F - 30.0 °F 52% 30.03 in 10.0 mi WNW 12.7 mph 20.7 mph N/A   Overcast
12:53 PM 46.9 °F - 28.0 °F 48% 30.02 in 10.0 mi West 10.4 mph - N/A   Mostly Cloudy
1:53 PM 48.0 °F - 27.0 °F 44% 30.02 in 10.0 mi NW 12.7 mph 20.7 mph N/A   Overcast
2:53 PM 50.0 °F - 25.0 °F 38% 30.02 in 10.0 mi NNW 10.4 mph - N/A   Overcast
3:53 PM 51.1 °F - 24.1 °F 35% 30.03 in 10.0 mi NW 11.5 mph 17.3 mph N/A   Partly Cloudy
4:53 PM 48.9 °F - 24.1 °F 38% 30.04 in 10.0 mi WNW 10.4 mph - N/A   Clear
5:53 PM 45.0 °F 43.5 °F 25.0 °F 46% 30.06 in 10.0 mi NW 3.5 mph - N/A   Clear
6:53 PM 35.1 °F - 25.0 °F 67% 30.09 in 10.0 mi Calm Calm - N/A   Clear
7:53 PM 30.9 °F - 25.0 °F 79% 30.11 in 10.0 mi Calm Calm - N/A   Clear
8:53 PM 28.9 °F - 24.1 °F 82% 30.13 in 10.0 mi Calm Calm - N/A   Clear
9:53 PM 28.9 °F - 24.1 °F 82% 30.15 in 10.0 mi Calm Calm - N/A   Clear
10:53 PM 28.0 °F - 23.0 °F 81% 30.17 in 10.0 mi Calm Calm - N/A   Clear
11:53 PM 27.0 °F - 21.9 °F 81% 30.17 in 10.0 mi Calm Calm - N/A   Clear